Location: Meinert
(37.9441°N, 122.0275°W)
Time: 18:12:48
(UTC+00:00)

Cosmos 1470 Rocket - Pass Details

Date: 18 April 2024
Orbit: 601 x 629 km, 82.5° (Epoch: 23 May)

Event Time Altitude Azimuth Distance (km) Brightness Sun altitude
Rises 12:06:50 0° 347° (NNW) 2,898 7.2 -15.7°
Reaches altitude 10° 12:09:05 10° 343° (NNW) 1,992 6.3 -15.3°
Maximum altitude 12:13:23 55° 267° (W) 754 3.6 -14.5°
Drops below altitude 10° 12:17:42 10° 189° (S) 1,992 5.8 -13.8°
Enters shadow 12:19:35 - 186° (S) 2,748 6.6 -13.4°
